This is the latest recevied weather packets stored in our database for station/object WB6ANP. If no packets are shown the sender has not sent any weather packets the latest 10 day(s).
| Time | Temp. | Humidity | Pressure | Rain* | Wind** | Luminosity | Snow |
|---|---|---|---|---|---|---|---|
| 1777703268 | 10.56° C | 92% | 1019.5 hPa | 0 mm | - | 0 W/m² | - |
| 1777702965 | 10.56° C | 91% | 1019.5 hPa | 0 mm | - | 0 W/m² | - |
| 1777702664 | 11.11° C | 90% | 1019.3 hPa | 0 mm | - | 0 W/m² | - |
| 1777702361 | 11.67° C | 88% | 1019.4 hPa | 0 mm | - | 0 W/m² | - |
| 1777702056 | 11.67° C | 88% | 1019.4 hPa | 0 mm | - | 0 W/m² | - |
| 1777701752 | 11.67° C | 88% | 1019.3 hPa | 0 mm | - | 0 W/m² | - |
| 1777701450 | 11.67° C | 90% | 1019.5 hPa | 0 mm | - | 0 W/m² | - |
| 1777701148 | 11.67° C | 90% | 1019.3 hPa | 0 mm | - | 0 W/m² | - |
| 1777700847 | 11.67° C | 91% | 1019.3 hPa | 0 mm | - | 0 W/m² | - |
| 1777700544 | 11.67° C | 94% | 1019.4 hPa | 0 mm | - | 0 W/m² | - |
| 1777700241 | 11.67° C | 94% | 1019.4 hPa | 0 mm | - | 0 W/m² | - |
| 1777699938 | 11.67° C | 93% | 1019.7 hPa | 0 mm | - | 0 W/m² | - |
| 1777699636 | 11.67° C | 94% | 1019.7 hPa | 0 mm | - | 0 W/m² | - |
| 1777699334 | 11.67° C | 94% | 1019.6 hPa | 0 mm | - | 0 W/m² | - |
| 1777699032 | 11.67° C | 94% | 1019.8 hPa | 0 mm | - | 0 W/m² | - |
| 1777698730 | 11.67° C | 94% | 1019.8 hPa | 0 mm | - | 0 W/m² | - |
| 1777698426 | 11.67° C | 95% | 1019.7 hPa | 0 mm | - | 0 W/m² | - |
| 1777698122 | 11.67° C | 95% | 1019.6 hPa | 0 mm | - | 0 W/m² | - |
| 1777697819 | 11.67° C | 94% | 1019.6 hPa | 0 mm | - | 0 W/m² | - |
| 1777697516 | 11.67° C | 94% | 1019.5 hPa | 0 mm | - | 0 W/m² | - |
| 1777697213 | 11.67° C | 93% | 1019.6 hPa | 0 mm | - | 0 W/m² | - |
| 1777696909 | 12.22° C | 92% | 1019.5 hPa | 0 mm | - | 0 W/m² | - |
| 1777696607 | 12.22° C | 92% | 1019.4 hPa | 0 mm | - | 0 W/m² | - |
| 1777696304 | 12.22° C | 93% | 1019.1 hPa | 0 mm | - | 0 W/m² | - |
| 1777696004 | 12.22° C | 91% | 1019.4 hPa | 0 mm | - | 0 W/m² | - |
* Rain latest hour (hover to see other rain measurements)
** Current wind speed in m/s (hover to see current wind gust speed)